Find Starlink 4204

NORAD ID: 52854 Int'l Des: 2022-062 Owner: SPXS Country: US Constellation: starlink operational
LEOCIRCULAR

Live Position

Loading 3D Globe...

About Starlink 4204

Description loading...

Upcoming Passes

Passes for default location (London). Set your location on the main map for personalized predictions.

Altitude History

Loading altitude history...

Two-Line Element Set

1 52854U 22062AA 26109.56961107 .00002669 00000-0 18565-3 0 9990
2 52854 53.2166 200.5987 0001120 55.3528 304.7570 15.08856669212096
Epoch: Apr 19, 2026 • Age: 13 hours

Current Status

Altitude 541.2 km
Velocity 7.60 km/s
Sub-Earth Point 29.13°N, 100.13°E
Launch Date Jun 17, 2022
Age 3.8 years
Type internet

Technical Details

Classification Payload
Mass 297.00 kg
Dry Mass 275.00 kg
Total Mass 297.00 kg
Length 0.20 m
Diameter 2.80 m
Span 9.00 m
Shape Box + pan
Manufacturer SPXS
Bus Type Starlink
Phase Status In Orbit
Owner/State SPXS/US

Most Searched